sat.trackr.live / text

‹ back to catalog

STARLINK-2642

NORAD 48437 · 2021-040K

PAYLOAD ACTIVE UNKNOWN

§ Identity

Operator
Country
US
Launch date
2021-05-09
Launch site
AFETR
Launch vehicle
Mass (kg)
RCS (m²)

Purposes: comms

External: N2YO · Heavens-Above · Gunter

§ Orbital elements

Epoch: 2026-09-19T18:31:26.213952Z

Period
94.01 min
Inclination
53.1614°
Eccentricity
0.0001479
Mean motion
15.31716210 rev/d
Perigee alt
469.7 km
Apogee alt
471.7 km
Semi-major
6,848.8 km
B*
1.0951e-4
RAAN
7.8261°
Arg perigee
87.9580°
Mean anomaly
272.1591°
Rev number
29,623

§ Raw data

STARLINK-26421 48437U 21040K   26262.77183118  .00003036  00000+0  10951-3 0  99972 48437  53.1614   7.8261 0001479  87.9580 272.1591 15.31716210296236

JSON: /api/v1/satellites/48437 · /tle

For live sub-satellite position, see the globe view (requires WebGL).

§ Visibility from observer

Set your observer location to see the next 7 days of passes ≥ 10°. The values pass through the URL so the page stays shareable.

No JS? Fill the form by hand. The geolocation button needs JavaScript.